Notices

What's New in latest Release from April 7th, 2021:

- Updated Glossary, including Speed of Maximum Gust, and Total Hourly Precipitation

- Updated national and regional climate services offices contacts and prices information

- Addition of station inventory lists for 1981-2010, 1971-2000, and 1961-1990 Normals.

If you haven't already, please take our survey and provide feedback about our website: https://eccc.sondage-survey.ca/f/LanguageSelection.aspx?s=442ca660-fcf1-47c0-95a9-59707d6fd709

Hourly Data Report for January 07, 2021

EDMUNDSTON
NEW BRUNSWICK
Current Station Operator: ECCC - MSC

47°25'00.000" N
68°19'28.040" W
154.20 m
8101303
71590
ERM

Download Data

Hourly Data (January 2021)
Hourly Data Report for January 7, 2021
TIME
LST
Temp Definition
°C
Dew Point Definition
°C
Rel Hum Definition
%
Precip. Amount Definition
mm

Wind Dir Definition
10's deg

Wind Spd Definition
km/h
Visibility Definition
km
Stn Press Definition
kPa
Hmdx Definition


Wind Chill Definition


Weather Definition


00:00 -4.7 LegendMM LegendMM 0.0 32 13   99.43   -10 LegendNANA
01:00 -5.2 LegendMM LegendMM 0.0 31 10   99.43   -10 LegendNANA
02:00 -5.3 LegendMM LegendMM 0.0 32 6   99.44   -8 LegendNANA
03:00 -4.5 LegendMM LegendMM 0.0 32 11   99.48   -9 LegendNANA
04:00 -4.7 LegendMM LegendMM 0.0 31 11   99.50   -9 LegendNANA
05:00 -5.1 LegendMM LegendMM 0.0 31 14   99.52   -10 LegendNANA
06:00 -5.6 LegendMM LegendMM 0.0 31 15   99.55   -11 LegendNANA
07:00 -6.1 LegendMM LegendMM 0.0 31 11   99.60   -11 LegendNANA
08:00 -6.2 LegendMM LegendMM 0.0 31 13   99.67   -12 LegendNANA
09:00 -5.5 LegendMM LegendMM 0.0 31 17   99.69   -12 LegendNANA
10:00 -4.4 LegendMM LegendMM 0.0 31 17   99.69   -10 LegendNANA
11:00 -3.3 LegendMM LegendMM 0.0 31 19   99.69   -9 LegendNANA
12:00 -3.0 LegendMM LegendMM 0.0 32 17   99.60   -9 LegendNANA
13:00 -3.1 LegendMM LegendMM 0.0 32 16   99.57   -8 LegendNANA
14:00 -3.1 LegendMM LegendMM 0.0 31 17   99.53   -9 LegendNANA
15:00 -2.8 LegendMM LegendMM 0.0 32 15   99.55   -8 LegendNANA
16:00 -2.7 LegendMM LegendMM 0.0 32 15   99.53   -8 LegendNANA
17:00 -2.4 LegendMM LegendMM 0.0 32 14   99.52   -7 LegendNANA
18:00 -2.5 LegendMM LegendMM 0.0 31 18   99.49   -8 LegendNANA
19:00 -2.5 LegendMM LegendMM 0.0 32 18   99.50   -8 LegendNANA
20:00 -2.9 LegendMM LegendMM 0.0 32 22   99.52   -9 LegendNANA
21:00 -3.4 LegendMM LegendMM 0.0 32 21   99.52   -10 LegendNANA
22:00 -4.0 LegendMM LegendMM 0.0 31 17   99.51   -10 LegendNANA
23:00 -4.3 LegendMM LegendMM 0.0 32 17   99.48   -10 LegendNANA

Notes on Data Quality.

Legend

  • E = Estimated
  • M = Missing
  • NA = Not Available*
  • [empty] = Indicates an unobserved value
Date modified: